THORAD AGENA D DEB

Satellite information

Favourite Embed

Satellite Type and Status

DEBRISIN ORBIT

Key statistics

Satellite THORAD AGENA D DEB at a glance.

Uptime

20339

Days in orbit

Revolutions

≈ 13.8

Per day

Orbit

SSO

Sun Synchronous Orbit

Inclination

99.6

Latest

Satellite identification and parameters

Extended collection of information and parameters for THORAD AGENA D DEB.

Object identification

Identified? True

Debris? True

Object name: THORAD AGENA D DEB

International designator: 1970-025RL

Object number (NORAD): 42506

Object ID (CCSDS): 42506

Country: UNITED STATES OF AMERICA (US)

Current information (Y/N): Y

RCS size: SMALL

Orbital parameters

Period: 104.239 minutes

Inclination: 99.5777 deg

SMA: 7336.906 km

Apoapsis: 995.7 km

Periapsis: 921.841 km

RAAN: 54.6323 deg

Eccentricy: 0.00503341

Argument of periapsis: 84.0072 deg

Mean anomaly: 276.6813 deg

Mean motion: 13.81444248 rev/day

Mean motion (dot): 0.00000482 rev/day2

B* drag term: 0.00049149759 1/REarth

Two-line elements (TLE)

Creation date: Dec. 13, 2025, 4:32 a.m.

Reference frame: TEME

Reference center: EARTH

Epoch: Dec. 12, 2025, 9:43 a.m. UTC

TLE line 0: 0 THORAD AGENA D DEB

TLE line 1: 1 42506U 70025RL 25346.40496830 .00000482 00000-0 49150-3 0 9991

TLE line 2: 2 42506 99.5777 54.6323 0050334 84.0072 276.6813 13.81444248257097

Live tracking on map

Real-time ground track for satellite THORAD AGENA D DEB.

In-orbit conjunctions

A list of the most updated potential collisions computed for object THORAD AGENA D DEB.

Target Orbit TCA Probability of collision Miss distance Type
COSMOS 785 LEO 2025-11-15 23:52:18 0.0003468908 275.0 (m) PAYLOAD
COSMOS 1092 LEO 2025-11-12 18:37:22 0.003174084 46.0 (m) PAYLOAD
COSMOS 778 LEO 2024-07-20 01:18:43 0.001323061 148.0 (m) PAYLOAD

Associated space launch

Meteorological research and development satellite

THORAD AGENA D DEB was lifted into orbit during the mission ‘Thorad SLV-2G Agena D | Nimbus 4’, on board a Thorad SLV-2G Agena D space rocket.

The launch took place on April 8, 1970, 8:17 a.m. from Space Launch Complex 2E.

For more information about the launch, click the button.

Launch to space Thorad SLV-2G Agena D | Nimbus 4
Thorad SLV-2G Agena D | Nimbus 4

Agency: N/A

Status: Launch Successful

Launch date: April 8, 1970, 8:17 a.m. UTC

Rocket: Thorad SLV-2G Agena D

Launch pad: Space Launch Complex 2E

Location: Vandenberg SFB, CA, USA

...

Latest news about this satellite

There are no fresh news available about this satellite. Check back as we update our databases every day.


Newsletter sign-up

Weekly statistics, charts and insights to help you stay on top of the space industry.